カタログに戻る

COSMOS 1275 DEB

運用中PO
NORAD 13022·DEBRIS·🇷🇺 Russia

打ち上げ Jun 4, 1981 から Plesetsk Cosmodrome

Loading…

次のパス (今後24時間)

TLE

最新Source: Space-Track

元期: Sep 14, 2026, 06:35 UTC

1 13022U 81053EU  26257.27432106  .00000814  00000-0  36749-3 0  9997
2 13022  82.9177 190.4698 0045504  94.3344  57.0686 14.20497258298098

AllMySatでCOSMOS 1275 DEBをリアルタイム追跡

Download on the App Store